Chicago Midway, IL

4:51 AM CDT on July 24, 2017 (GMT -0500)
Chicago-Midway

Weather History for KMDW - July, 2013

Change the Weather History Date:

Thursday, July 11, 2013

  Actual Average Record
Temperature  
Mean Temperature 72 °F 76 °F  
Max Temperature 80 °F 85 °F 107 °F (1936)
Min Temperature 63 °F 68 °F 51 °F (1978)
Degree Days  
Heating Degree Days 0 0  
Month to date heating degree days 0 0  
Since 1 June heating degree days 36 31  
Since 1 July heating degree days 0 0  
Cooling Degree Days 7 11  
Month to date cooling degree days 98 119  
Year to date cooling degree days 385 403  
Since 1 June cooling degree days 279 329  
Growing Degree Days 22 (Base 50)    
Moisture  
Dew Point 52 °F    
Average Humidity 50    
Maximum Humidity 80    
Minimum Humidity 23    
Precipitation  
Precipitation 0.00 in 0.13 in 6.16 in (1957)
Month to date precipitation 0.92 1.32  
Year to date precipitation 21.79 19.87  
Sea Level Pressure  
Sea Level Pressure 30.05 in    
Wind  
Wind Speed 8 mph (NNE)    
Max Wind Speed 17 mph    
Max Gust Speed 22 mph    
Visibility 10 miles    
Events      
T = Trace of Precipitation, MM = Missing Value Source: NWS Daily Summary

Daily Weather History Graph

Daily Weather History Graph

Search for Another Location

Airport or City:

Trip Planner

Search our weather history database for the weather conditions in past years. The results will help you decide how hot, cold, wet, or windy it might be!

Date:

Astronomy

Jul. 11, 2013 Rise Set
Actual Time 5:26 AM CDT 8:26 PM CDT
Civil Twilight 4:52 AM CDT 8:59 PM CDT
Nautical Twilight 4:10 AM CDT 9:42 PM CDT
Astronomical Twilight 3:20 AM CDT 10:31 PM CDT
Moon 8:48 AM CDT (7/11) 10:02 PM CDT (7/11)
Length of Visible Light 16h 06m
Length of Day
14h 59m
Waxing Crescent, 11% of the Moon is Illuminated
Jul 11
Waxing Crescent
Jul 15
First Quarter
Jul 22
Full
Jul 29
Last Quarter
Aug 6
New

Hourly Weather History & Observations

Time (CDT) Temp. Dew Point Humidity Pressure Visibility Wind Dir Wind Speed Gust Speed Precip Events Conditions
12:51 AM 68.0 °F 57.9 °F 70% 29.99 in 10.0 mi Calm Calm - N/A   Partly Cloudy
1:51 AM 66.9 °F 59.0 °F 76% 30.01 in 10.0 mi West 3.5 mph - N/A   Mostly Cloudy
2:51 AM 66.0 °F 57.9 °F 75% 30.01 in 10.0 mi WSW 3.5 mph - N/A   Partly Cloudy
3:51 AM 66.0 °F 57.9 °F 75% 30.02 in 10.0 mi WNW 3.5 mph - N/A   Partly Cloudy
4:51 AM 64.0 °F 57.9 °F 80% 30.03 in 10.0 mi WNW 3.5 mph - N/A   Partly Cloudy
5:51 AM 64.0 °F 57.9 °F 80% 30.04 in 10.0 mi Calm Calm - N/A   Partly Cloudy
6:51 AM 68.0 °F 57.9 °F 70% 30.05 in 10.0 mi NNW 5.8 mph - N/A   Partly Cloudy
7:51 AM 71.1 °F 60.1 °F 68% 30.06 in 10.0 mi NNE 8.1 mph - N/A   Clear
8:51 AM 73.9 °F 55.0 °F 52% 30.06 in 10.0 mi NNE 6.9 mph - N/A   Partly Cloudy
9:51 AM 75.9 °F 52.0 °F 43% 30.07 in 10.0 mi NE 11.5 mph - N/A   Partly Cloudy
10:51 AM 75.9 °F 50.0 °F 40% 30.08 in 10.0 mi NE 9.2 mph - N/A   Partly Cloudy
11:51 AM 77.0 °F 48.9 °F 37% 30.08 in 10.0 mi NE 11.5 mph 17.3 mph N/A   Partly Cloudy
12:51 PM 79.0 °F 48.0 °F 34% 30.09 in 10.0 mi NNE 11.5 mph 16.1 mph N/A   Clear
1:51 PM 78.1 °F 48.0 °F 35% 30.08 in 10.0 mi ENE 12.7 mph 18.4 mph N/A   Clear
2:51 PM 80.1 °F 48.9 °F 34% 30.08 in 10.0 mi NE 12.7 mph - N/A   Clear
3:51 PM 80.1 °F 48.9 °F 34% 30.08 in 10.0 mi NNE 11.5 mph - N/A   Clear
4:51 PM 79.0 °F 48.9 °F 35% 30.07 in 10.0 mi NNE 12.7 mph - N/A   Clear
5:51 PM 78.1 °F 50.0 °F 37% 30.07 in 10.0 mi NE 9.2 mph - N/A   Clear
6:51 PM 77.0 °F 48.9 °F 37% 30.06 in 10.0 mi East 6.9 mph - N/A   Clear
7:51 PM 73.9 °F 46.9 °F 38% 30.05 in 10.0 mi NNE 10.4 mph - N/A   Clear
8:51 PM 71.1 °F 48.9 °F 45% 30.05 in 10.0 mi NE 6.9 mph - N/A   Clear
9:51 PM 72.0 °F 42.1 °F 34% 30.06 in 10.0 mi NNE 6.9 mph - N/A   Clear
10:51 PM 70.0 °F 46.9 °F 44% 30.06 in 10.0 mi North 5.8 mph - N/A   Clear
11:51 PM 69.1 °F 48.9 °F 49% 30.06 in 10.0 mi North 6.9 mph - N/A   Clear